Location: Dalton Gardens
(47.7327°N, 116.7697°W)
Time: 05:32:35
(UTC+00:00)

Envisat - Visible Passes

Search period start: 02 December 2022 00:00
Search period end: 12 December 2022 00:00
Orbit: 763 x 765 km, 98.2° (Epoch: 01 December)

Date Brightness Start Highest point End Pass type
(mag) Time Alt. Az. Time Alt. Az. Time Alt. Az.
02 Dec 5.1 11:40:02 10° NNE 11:41:41 20° NNE 11:41:41 20° NNE visible
02 Dec 4.4 13:19:31 10° N 13:21:51 21° NNW 13:21:51 21° NNW visible
03 Dec 6.0 00:39:58 10° WSW 00:42:26 14° W 00:44:56 10° WNW visible
03 Dec 5.8 11:03:39 10° NE 11:04:05 12° NE 11:04:05 12° NE visible
03 Dec 4.4 12:42:03 10° N 12:44:15 25° N 12:44:15 25° N visible
04 Dec 4.8 12:04:57 10° NNE 12:06:39 22° NNE 12:06:39 22° NNE visible
04 Dec 4.7 13:45:12 10° NNW 13:46:50 15° NW 13:46:50 15° NW visible
05 Dec 5.5 11:28:13 10° NNE 11:29:04 15° NNE 11:29:04 15° NNE visible
05 Dec 4.5 13:07:22 10° N 13:09:14 20° NNW 13:09:14 20° NNW visible
06 Dec 5.8 00:27:03 10° SW 00:30:19 17° W 00:33:38 10° NW visible
06 Dec 4.7 12:30:01 10° N 12:31:40 21° N 12:31:40 21° N visible
06 Dec 5.0 14:11:40 10° NW 14:11:50 10° NW 14:11:50 10° NW visible
07 Dec 5.2 11:53:01 10° NNE 11:54:05 16° NNE 11:54:05 16° NNE visible
07 Dec 4.7 13:32:54 10° NNW 13:34:16 15° NNW 13:34:16 15° NNW visible
08 Dec 5.8 11:16:26 10° NNE 11:16:32 10° NE 11:16:32 10° NE visible
08 Dec 4.8 12:55:16 10° N 12:56:42 18° N 12:56:42 18° N visible
09 Dec 5.1 12:18:02 10° NNE 12:19:08 17° N 12:19:08 17° N visible
09 Dec 5.0 13:58:51 10° NNW 13:59:19 11° NNW 13:59:19 11° NNW visible
10 Dec 5.6 11:41:08 10° NNE 11:41:36 12° NNE 11:41:36 12° NNE visible
10 Dec 4.9 13:20:41 10° N 13:21:46 15° NNW 13:21:46 15° NNW visible
11 Dec 6.0 00:41:19 10° WSW 00:43:35 13° W 00:45:53 10° WNW visible
11 Dec 5.0 12:43:11 10° N 12:44:13 16° N 12:44:13 16° N visible
